#timestamp,LO_Frequency,Hit 
1502625615.3,286046998.3,N
1502625635.1,286046997.7,N
1502625655.9,286046998.9,N
1502625675.7,286046997.0,N
1502625695.5,286047000.2,N
1502625715.4,286047004.2,N
1502625735.2,286047003.0,N
1502625755.0,286047005.8,N
1502625755.9,286047005.8,N
1502625775.8,286047006.8,N
1502625795.6,286047005.3,N
1502625815.4,286047002.3,N
1502625835.3,286047001.2,N
1502625855.1,286046996.6,N
1502625856.0,286046996.6,N
1502625875.8,286046997.6,N
1502625895.7,286046994.5,N
1502625915.5,286046992.5,N
1502625935.3,286046997.2,N
1502625955.1,286047000.6,N
1502625975.9,286047000.8,N
1502625995.7,286046999.8,N
1502626015.5,286046999.9,N
1502626035.4,286046999.3,N
1502626055.2,286046996.2,N
1502626075.0,286046992.0,N
1502626075.9,286046992.0,N
1502626095.8,286046995.8,N
1502626115.6,286046996.3,N
1502626135.4,286046996.0,N
1502626155.3,286046995.9,N
1502626175.1,286046993.9,N
1502626176.0,286046993.9,N
1502626195.8,286046996.8,N
1502626215.7,286047000.7,N
1502626235.5,286046999.3,N
1502626255.3,286046998.5,N
1502626275.1,286046997.5,N
1502626295.9,286046993.5,N
1502626315.7,286046992.5,N
1502626335.5,286046994.8,N
1502626355.4,286046993.4,N
1502626375.2,286046994.0,N
1502626395.0,286046996.4,N
1502626395.9,286046996.4,N
1502626415.8,286046997.7,N
1502626435.6,286046996.7,N
1502626455.4,286047000.0,N
1502626475.3,286047003.4,N
1502626495.1,286047005.1,N
1502626496.0,286047005.1,N
1502626515.8,286047005.7,N
1502626535.7,286047007.1,N
1502626555.5,286047007.6,N
1502626575.3,286047007.2,N
1502626595.2,286047004.7,N
1502626615.9,286047005.0,N
1502626635.7,286047005.5,N
1502626655.5,286047006.0,N
1502626675.4,286047005.8,N
1502626695.2,286047000.1,N
1502626715.0,286046996.9,N
1502626715.9,286046996.9,N
1502626735.8,286047001.6,N
1502626755.6,286047004.4,N
1502626775.4,286047005.9,N
1502626795.3,286047009.1,N
1502626815.1,286047007.9,N
1502626835.8,286047010.7,N
1502626855.7,286047006.9,N
1502626875.5,286047006.3,N
1502626895.3,286047005.2,N
1502626915.2,286047005.2,N
1502626935.9,286047005.2,N
1502626955.7,286047003.3,N
1502626975.6,286047004.3,N
1502626995.4,286047001.6,N
1502627015.2,286047004.1,N
1502627035.1,286047004.4,N
1502627036.0,286047004.4,N
1502627055.8,286047006.0,N
1502627075.6,286047006.8,N
1502627095.5,286047008.9,N
1502627115.3,286047009.0,N
1502627135.1,286047012.0,P
1502627155.9,286047007.6,N
1502627175.7,286047005.5,N
1502627195.5,286047005.9,N
1502627215.4,286047004.1,N
1502627235.2,286047005.7,N
1502627255.0,286047008.6,P
1502627255.9,286047008.6,P
1502627275.8,286047000.6,N
1502627295.6,286046998.2,N
1502627315.4,286047002.7,N
1502627335.3,286047001.1,N
1502627355.1,286046998.7,N
1502627356.0,286046998.7,N
1502627375.7,286047000.0,N
1502627395.5,286047001.9,N
1502627415.4,286046996.8,N
1502627435.2,286046995.3,N
1502627455.6,286047000.4,N
1502627475.4,286047000.0,N
1502627495.2,286047000.4,N
1502627515.1,286046999.4,N
1502627516.0,286046999.4,N
1502627535.8,286046999.3,N
1502627555.6,286047000.5,N
1502627575.5,286046999.1,N
1502627595.3,286047000.9,N
1502627615.1,286046998.1,N
1502627635.8,286046998.3,N
1502627655.7,286047000.6,N
1502627675.5,286046996.6,N
1502627695.3,286047000.7,N
1502627715.2,286047000.3,N
1502627735.0,286047003.5,N
1502627735.9,286047003.5,N
1502627755.7,286047006.8,N
1502627775.6,286047007.6,N
1502627795.4,286047005.4,N
1502627815.2,286047002.1,N
1502627835.1,286047000.4,N
1502627836.0,286047000.4,N
1502627855.8,286047004.3,N
1502627875.6,286047000.4,N
1502627895.5,286046996.5,N
1502627915.3,286046999.0,N
1502627935.1,286046997.3,N
1502627955.9,286046998.0,N
1502627975.3,286046996.8,N
1502627995.1,286046998.6,N
1502627996.0,286046998.6,N
1502628015.8,286046998.6,N
1502628035.7,286047000.6,N
1502628055.5,286047001.8,N
1502628075.3,286047000.6,N
1502628095.1,286047000.9,N
1502628115.9,286047002.4,N
1502628135.7,286046999.1,N
1502628155.5,286046997.2,N
1502628175.4,286047002.7,N
1502628195.2,286047000.4,N
1502628215.0,286047000.0,N
1502628215.9,286047000.0,N
1502628235.8,286047002.3,N
1502628255.6,286047002.5,N
1502628275.4,286047003.1,N
1502628295.3,286047003.3,N
1502628315.1,286047006.8,N
1502628316.0,286047006.8,N
1502628335.8,286047010.0,P
1502628355.7,286047009.9,N
1502628375.5,286047007.7,N
1502628395.3,286047010.4,N
1502628415.2,286047009.1,N
1502628435.9,286047003.6,N
1502628455.7,286047001.3,N
1502628475.6,286046998.5,N
1502628495.4,286046998.2,N
1502628515.2,286047001.0,N
1502628535.1,286046996.8,N
1502628536.0,286046996.8,N
1502628555.8,286046996.3,N
1502628575.6,286046995.5,N
1502628595.5,286046997.2,N
1502628615.3,286046998.4,N
1502628635.8,286047000.0,N
1502628655.6,286047002.4,N
1502628675.4,286047002.0,N
1502628695.2,286047001.1,N
1502628715.9,286047003.9,N
1502628735.7,286047005.6,N
1502628755.5,286047009.2,N
1502628775.4,286047008.0,N
1502628795.2,286047005.6,N
1502628815.0,286047003.5,N
1502628815.9,286047003.5,N
1502628835.8,286047004.4,N
1502628855.6,286047001.7,N
1502628875.4,286047001.5,N
1502628895.1,286047000.4,N
1502628915.9,286046998.6,N
1502628935.7,286047002.4,N
1502628955.5,286046997.7,N
1502628975.3,286046997.9,N
1502628995.2,286046999.5,N
1502629015.0,286046998.4,N
1502629015.9,286046998.4,N
1502629035.8,286046998.2,N
1502629055.6,286046999.0,N
1502629075.4,286047001.9,N
1502629095.2,286047004.8,N
1502629115.1,286047007.7,N
1502629116.0,286047007.7,N
1502629135.8,286047007.6,N
1502629155.6,286047008.7,N
1502629175.5,286047008.8,N
1502629195.3,286047004.8,N
